Location: Unspecified
(0.0000°N, 0.0000°E)
Time: 13:02:49
(UTC+00:00)

Envisat - Pass Details

Date: 21 May 2022
Orbit: 764 x 765 km, 98.2° (Epoch: 19 May)

Event Time Altitude Azimuth Distance (km) Brightness Sun altitude
Rises 03:08:39 0° 47° (NE) 3,216 7.1 -38.9°
Reaches altitude 10° 03:12:05 10° 72° (ENE) 2,294 6.2 -38.1°
Maximum altitude 03:14:39 14° 103° (ESE) 2,028 5.6 -37.6°
Enters shadow 03:16:01 13° 120° (ESE) 2,110 5.6 -37.2°
